Regional Weather Roundup
Issued by NWS

Home | Current Version | Previous Version | Text Only | Print | Product List | Glossary On
Versions: 1 2 3 4 5 6 7 8 9 10 11 12 13 14 15 16 17 18 19 20 21 22 23 24 25 26 27 28 29 30 31 32 33 34 35 36 37 38 39 40 41 42 43 44 45 46 47 48 49 50
000
ASUS43 KMPX 191701
RWRMN
WEATHER ROUNDUP FOR MINNESOTA
NATIONAL WEATHER SERVICE TWIN CITIES/CHANHASSEN MN
1200 PM CDT SUN APR 19 2015


NOTE: "FAIR" INDICATES FEW OR NO CLOUDS BELOW 12,000 FEET WITH NO
SIGNIFICANT WEATHER AND/OR OBSTRUCTIONS TO VISIBILITY. N/A MEANS
CURRENT SKY AND/OR WEATHER CONDITIONS ARE NOT AVAILABLE.

MNZ060>063-068>070-191800-
   Twin Cities Metro

CITY           SKY/WX    TMP DP  RH WIND       PRES   REMARKS
TWIN CITIES    CLOUDY    57  52  83 VRB5      29.65F
ST PAUL        CLOUDY    56  51  84 SE8       29.66F
CRYSTAL        CLOUDY    58  51  78 S9        29.63F
BLAINE         CLOUDY    57  52  82 S8        29.64F
LAKEVILLE      CLOUDY    55  54  94 S6        29.65F
EDEN PRAIRIE   CLOUDY    58  54  86 S3        29.63F
SOUTH ST PAUL  CLOUDY    56  50  80 SE5       29.65F
LAKE ELMO      CLOUDY    55  48  76 S7        29.67F
$$
MNZ001>005-007-008-013>017-022>024-027-028-191800-
   Northwest Minnesota

CITY           SKY/WX    TMP DP  RH WIND       PRES   REMARKS
BEMIDJI        CLOUDY    42  40  91 SW5       29.63F
HALLOCK        HVY RAIN  43  41  93 NW22G30   29.67S
ROSEAU         LGT RAIN  45  39  81 W3        29.63S
WARROAD        CLOUDY    41  37  87 CALM      29.62F
THIEF RVR FALL CLOUDY    45  43  93 NW18G24   29.65F
CROOKSTON      LGT RAIN  45  45 100 NW22      29.68S
FOSSTON        DRIZZLE   45  43  93 W8        29.64F
DETROIT LAKES  CLOUDY    43  43 100 NW18G33   29.68R FOG
MOORHEAD       CLOUDY    45  39  81 NW26      29.71S
PARK RAPIDS    CLOUDY    48  42  80 NW8       29.63F
MAHNOMEN       DRIZZLE   44  43  96 NW20G30   29.65R
$$
MNZ006-009>011-018-025>026-191800-
   North Central Minnesota

CITY           SKY/WX    TMP DP  RH WIND       PRES   REMARKS
BAUDETTE       CLOUDY    43  39  86 SE9       29.62F
FLAG ISLAND    CLOUDY    39  37  93 E6        29.62F
INTL FALLS     CLOUDY    41  39  93 SE8       29.63F FOG
WASKISH        CLOUDY    43  41  93 CALM      29.62F
BIG FORK       CLOUDY    43  39  87 S6        29.63F
LONGVILLE      DRIZZLE   43  43 100 CALM      29.63S
GRAND RAPIDS   CLOUDY    41  37  87 SE3       29.63S
ORR            CLOUDY    41  39  93 CALM      29.61F
COOK           DRIZZLE   41  41 100 SE3       29.64F
WALKER         CLOUDY    41  39  93 CALM      29.64S
$$
MNZ012-019>021-037-191800-
   Northeast Minnesota

CITY           SKY/WX    TMP DP  RH WIND       PRES   REMARKS
DULUTH         LGT RAIN  39  37  92 SE14      29.66S VSB 1/2
ELY            DRIZZLE   39  37  93 S10       29.66F
HIBBING        LGT RAIN  42  40  92 SE7       29.64F FOG
EVELETH        RAIN      43  41  93 SE6       29.66S
DULUTH HARBOR  CLOUDY    37  36  93 NE18      29.70F
TWO HARBORS    CLOUDY    41  36  81 E10G16    29.67F
SILVER BAY     LGT RAIN  37  36  93 NE13G20   29.70F
GRAND MARAIS     N/A     38  35  89 NE15G24   29.77F
G MARAIS ARPRT LGT RAIN  36  30  80 E13G20    29.72F
$$
MNZ029>031-032-039>041-046>048-054>057-064-191800-
   West Central Minnesota

CITY           SKY/WX    TMP DP  RH WIND       PRES   REMARKS
FERGUS FALLS   CLOUDY    45  45 100 NW26      29.72R FOG
WHEATON        CLOUDY    46  39  76 NW24G31   29.76R
MORRIS         CLOUDY    46  45  93 NW26      29.71R
ALEXANDRIA     CLOUDY    47  45  93 W15       29.68R
ELBOW LAKE     CLOUDY    44  42  93 NW22G31   29.70R
WADENA         CLOUDY    46  45  93 NW7       29.64S
GLENWOOD       CLOUDY    48  46  93 W15G23    29.68R
APPLETON       PTSUNNY   50  43  76 NW21G32   29.73S
BENSON         CLOUDY    48  43  81 N21G26    29.71S
ORTONVILLE     CLOUDY    48  39  71 NW23G30   29.74S
MADISON        CLOUDY    48  43  81 NW28G33   29.74S
WILLMAR        CLOUDY    50  48  93 NW21G26   29.70S
$$
MNZ033>034-036-042>043-049>051-058-059-191800-
   Central Minnesota

CITY           SKY/WX    TMP DP  RH WIND       PRES   REMARKS
ST CLOUD       CLOUDY    53  49  86 W13       29.63R
SAUK CENTRE    CLOUDY    51  45  79 NW18      29.66R
PAYNESVILLE    CLOUDY    50  47  88 SW20G25   29.67R
AITKIN         CLOUDY    48  43  81 S7        29.60F HAZE
PINE RIVER     DRIZZLE   43  43 100 NW5       29.66F
BRAINERD       LGT RAIN  48  48 100 SW7       29.61S FOG
STAPLES        CLOUDY    46  45  93 NW10G18   29.63F
LONG PRAIRIE   CLOUDY    50  43  76 W13G21    29.66R
LITTLE FALLS   CLOUDY    48  46  93 W14       29.63R
LITCHFIELD     CLOUDY    54  50  87 W17G23    29.67R
BUFFALO        CLOUDY    55  51  85 W15       29.65R
MAPLE LAKE     CLOUDY    54  52  93 W9G16     29.66R
$$
MNZ037-044-045-052-053-191800-
   East Central Minnesota

CITY           SKY/WX    TMP DP  RH WIND       PRES   REMARKS
PRINCETON      CLOUDY    54  52  94 SE7       29.63S FOG
MORA           CLOUDY    46  43  87 SE7       29.64F
CAMBRIDGE      CLOUDY    54  45  71 SE8       29.61F
RUSH CITY      CLOUDY    51  45  79 S13       29.64F
MOOSE LAKE     LGT RAIN  45  43  93 CALM      29.62F
HINCKLEY       CLOUDY    48  45  87 S8        29.64F
CLOQUET        DRZL/FOG  39  37  93 SE8       29.65F VSB 1/2
MCGREGOR       CLOUDY    45  43  93 SE6       29.62F
$$
MNZ071>073-080-081-089-090-097-098-191800-
   Southwest Minnesota

CITY           SKY/WX    TMP DP  RH WIND       PRES   REMARKS
MONTEVIDEO     CLOUDY    50  50 100 N17G26    29.73S
GRANITE FALLS  CLOUDY    49  46  90 W16       29.74R
CANBY          CLOUDY    48  42  80 NW18G28   29.77R
MARSHALL       CLOUDY    50  41  71 N20       29.73R
REDWOOD FALLS  CLOUDY    53  48  83 W20G28    29.69S
OLIVIA         CLOUDY    50  45  81 NW20G28   29.69S
PIPESTONE      CLOUDY    48  45  87 N14G26    29.76R
WORTHINGTON    CLOUDY    54  45  71 NW23      29.72F
JACKSON        CLOUDY    54  50  87 NW15      29.71S
TRACY          CLOUDY    51  47  85 NW21G28   29.73S
SLAYTON        CLOUDY    50  46  87 NW17      29.74R
$$
MNZ065>067-074>077-082>085-091>093-191800-
   South Central Minnesota

CITY           SKY/WX    TMP DP  RH WIND       PRES   REMARKS
MANKATO        CLOUDY    57  52  82 NW20      29.66S
NEW ULM        CLOUDY    54  50  87 NW15      29.69R
ST JAMES       CLOUDY    57  52  82 W18       29.70S
FAIRMONT       CLOUDY    57  48  72 NW18      29.67F
GLENCOE        CLOUDY    55  52  90 W14G23    29.66R
FARIBAULT      CLOUDY    59  55  88 S5        29.67S
OWATONNA       PTSUNNY   61  55  82 SW8       29.66F
ALBERT LEA     CLOUDY    63  55  77 S6        29.67F
$$
MNZ078>079-086>088-094>096-191800-
   Southeast Minnesota

CITY           SKY/WX    TMP DP  RH WIND       PRES   REMARKS
ROCHESTER      CLOUDY    58  52  80 S10       29.70F
RED WING       CLOUDY    61  48  63 S8        29.66F
STANTON        CLOUDY    60  54  79 S6        29.65F
DODGE CENTER   PTSUNNY   59  54  82 S9        29.68F
WINONA         CLOUDY    59  43  55 SE7       29.69F
AUSTIN         CLOUDY    57  52  82 S5        29.68F
PRESTON        CLOUDY    56  48  75 CALM      29.69F
$$
ABBREVIATIONS USED IN REMARKS
   TC - TEMPERATURES IN CELSIUS
  WCI - WIND CHILL INDEX
   HX - HEAT INDEX
  VSB - VISIBILITY
$$



USA.gov is the U.S. government's official web portal to all federal, state and local government web resources and services.